Wind_Speed
148 140 125 105 96 87 78 71 67 64 60 56 51 46 43 41 38 40 37 40 46 54 57 55 52 60 67 70 79 89 91 89 93 91 86 77 71 67 63 60 61 65 63 68 70 80 86 92 94 94 91 89 88 83
129 111 101 93 84 76 68 63 59 55 51 47 42 39 37 34 32 31 32 37 41 49 43 43 46 52 59 64 69 78 83 86 88 86 85 79 72 63 61 59 60 56 56 61 66 77 82 87 90 91 89 90 88 82
98 91 86 77 71 64 60 55 52 48 44 40 36 33 31 29 28 26 29 32 38 38 35 41 42 47 56 65 68 73 73 81 83 87 82 77 73 62 57 57 59 54 53 55 46 71 64 80 84 89 88 87 84 82
87 78 70 65 59 55 52 49 45 40 36 33 29 28 25 23 22 23 23 26 29 29 35 39 42 46 52 61 68 69 72 80 82 86 81 76 69 64 58 55 58 48 57 62 57 45 50 51 69 82 85 85 83 81
74 67 62 56 52 50 46 43 38 33 29 26 23 20 18 17 17 18 21 22 23 27 33 37 40 46 50 55 61 67 73 83 82 80 79 74 69 61 56 57 57 58 64 64 60 62 58 52 48 67 77 83 81 80
62 55 51 48 46 42 39 34 29 26 22 18 15 14 13 13 12 15 18 20 23 28 32 36 41 45 48 51 55 61 67 76 82 81 81 76 66 58 52 59 56 66 66 66 66 49 46 51 45 48 57 75 81 81
54 49 46 42 38 35 30 27 24 19 15 13 10 8 8 10 11 14 17 20 23 27 30 35 40 43 46 49 53 58 65 73 77 80 79 73 62 59 54 62 63 71 68 57 55 55 53 54 47 45 56 58 61 68
49 44 40 35 32 29 26 22 16 12 11 7 4 0 4 7 9 11 16 21 25 28 31 35 39 42 45 49 52 58 64 72 77 77 72 66 61 58 56 62 75 75 76 69 66 61 62 68 49 62 52 54 62 54
44 39 33 29 28 26 21 14 9 7 6 4 3 2 4 8 12 16 20 23 26 30 33 36 39 42 44 48 53 57 62 72 76 72 67 68 66 62 58 66 77 80 75 77 73 70 66 65 68 59 56 62 53 58
40 34 29 27 26 22 16 10 7 6 6 6 6 7 9 12 15 18 22 25 28 31 36 38 40 42 44 47 52 57 64 67 71 70 67 66 64 61 61 67 70 87 82 80 72 66 63 57 73 63 64 65 64 65
37 31 27 25 23 19 14 10 9 8 9 10 11 13 14 15 17 19 21 25 29 32 35 37 40 42 44 47 50 55 61 65 70 69 66 68 62 56 50 65 67 62 93 87 90 85 74 73 78 71 72 78 70 67
34 30 25 23 21 18 14 12 11 11 11 12 14 16 17 19 19 21 23 24 27 31 34 36 39 42 44 46 50 55 61 65 66 67 69 65 61 63 53 67 71 80 70 100 100 93 83 81 77 77 74 74 77 69
32 29 25 23 21 18 16 15 14 13 13 14 15 17 18 20 22 23 26 27 29 29 31 35 38 38 38 42 47 53 58 62 67 68 67 63 65 66 62 57 65 77 90 85 99 97 87 83 81 78 76 76 73 64
30 28 25 23 21 20 19 18 17 15 13 14 17 20 22 22 23 25 26 26 28 29 29 31 33 34 36 38 42 49 57 62 64 64 64 64 64 66 70 68 65 67 70 81 91 104 96 88 90 82 84 71 68 71
29 30 28 25 22 22 22 23 24 24 21 15 15 18 21 21 22 23 23 24 25 26 28 30 32 35 38 40 46 53 58 60 62 63 64 64 62 64 66 72 65 60 65 63 75 89 94 83 79 81 83 85 78 72
29 31 28 25 25 23 23 25 27 23 19 20 21 21 20 21 22 21 22 22 21 22 25 28 32 36 38 42 47 51 59 61 62 64 63 61 61 62 73 74 74 71 67 63 62 61 61 65 70 74 65 64 66 67
30 28 27 27 26 25 23 21 22 22 20 21 22 23 24 24 21 20 21 21 22 23 26 28 30 35 37 38 42 50 56 60 63 61 61 60 54 56 70 74 77 75 71 69 67 70 69 67 64 66 65 64 65 65
30 28 27 28 27 26 24 22 20 21 22 23 22 22 23 24 23 20 20 21 23 25 25 26 26 30 34 38 42 47 54 55 57 57 56 59 57 56 67 75 78 79 75 75 72 68 66 67 68 64 63 64 66 67
33 32 31 31 30 30 26 23 21 22 24 24 24 24 23 22 23 22 21 23 25 26 26 25 23 23 27 30 34 38 43 45 46 48 48 49 56 57 59 71 72 76 78 74 70 78 72 71 71 71 75 74 74 75
35 34 34 34 33 32 30 27 24 24 24 23 23 23 22 22 23 22 21 23 24 25 25 25 22 21 21 21 25 30 30 34 35 38 39 42 45 48 51 58 70 76 79 81 78 75 71 72 76 78 77 79 79 77
43 40 37 35 34 34 33 31 29 27 25 24 23 22 21 21 21 21 21 20 23 23 24 25 23 23 21 18 17 16 17 20 24 30 33 33 36 39 43 48 56 68 82 82 80 77 75 75 78 76 74 73 75 76
48 46 45 43 40 36 35 34 32 30 28 26 23 22 21 19 18 17 18 19 19 19 21 22 19 17 16 19 19 17 17 18 21 25 29 34 39 43 46 48 50 53 58 65 71 78 79 76 75 75 75 75 74 75
47 48 47 45 47 46 44 42 38 33 31 29 27 24 21 19 17 15 13 12 12 13 14 14 15 15 14 15 16 18 22 26 29 30 31 33 34 36 38 42 45 49 53 57 61 64 67 69 69 68 68 67 67 67
37 40 41 41 42 43 43 42 40 39 36 34 33 32 30 27 23 18 13 11 9 7 6 7 9 12 13 15 17 19 21 24 28 31 34 37 40 42 44 47 50 52 54 57 59 62 64 66 67 70 71 73 75 74
33 31 30 31 33 33 34 36 37 39 38 37 35 35 36 36 34 30 25 20 16 12 8 5 4 6 9 12 14 17 19 22 24 27 28 30 33 35 38 40 43 45 48 50 53 55 56 58 59 60 60 59 59 57
29 26 25 27 29 30 29 30 32 31 31 30 29 28 27 27 28 25 23 22 20 18 17 14 12 9 6 3 1 2 5 8 9 12 14 16 18 21 23 25 27 30 32 34 37 39 40 42 43 44 45 46 47 48
25 24 25 27 27 26 25 24 24 25 24 23 22 20 19 19 18 16 14 13 11 9 7 5 3 1 2 5 7 9 11 12 14 16 18 21 23 25 27 29 30 31 32 33 35 36 38 40 42 44 46 49 50 52
25 24 22 20 20 20 20 19 19 18 17 16 15 14 13 13 13 12 12 11 10 10 9 9 10 11 13 16 19 21 22 23 26 28 29 30 32 34 36 37 39 40 41 43 45 48 50 52 54 56 57 59 60 61
26 26 25 22 21 19 17 16 16 16 15 15 15 14 13 12 12 12 12 11 11 12 13 14 16 18 21 24 27 30 33 36 37 38 39 41 43 44 46 47 49 50 51 52 54 56 57 59 60 62 64 65 67 67
24 24 24 24 23 22 21 20 19 18 18 18 17 16 16 16 16 16 17 19 20 22 24 26 28 31 33 34 36 38 40 42 44 46 49 51 52 53 54 55 55 55 56 56 57 58 59 60 61 63 64 65 66 68
26 25 25 23 20 18 16 15 16 17 17 18 18 16 14 17 20 17 19 22 25 29 31 34 37 38 38 40 43 45 44 43 43 43 45 46 48 50 51 53 54 55 56 57 58 59 59 59 60 60 60 60 60 60
32 32 31 29 27 25 25 25 23 20 20 21 20 20 20 17 18 20 19 19 20 21 23 25 27 29 31 32 34 38 40 43 46 48 50 50 51 51 52 53 53 53 53 53 53 53 53 53 54 54 54 54 53 53
32 34 34 35 34 32 30 29 29 29 29 28 29 28 28 29 29 30 31 31 31 32 34 35 37 39 40 40 42 43 44 44 44 45 45 46 46 46 47 49 50 51 52 52 53 53 52 51 51 50 50 49 49 48
Wind_Direction
316 315 310 309 308 306 306 304 300 301 300 296 293 291 286 282 274 264 255 242 235 234 237 234 229 225 229 229 226 223 222 222 222 222 224 223 227 228 229 231 230 225 224 224 222 221 221 225 227 229 231 232 233 235
314 311 309 309 309 307 307 303 303 301 299 296 294 292 287 283 273 259 243 236 232 234 232 228 223 220 220 225 224 224 221 219 219 219 220 224 225 226 227 227 229 221 221 223 225 222 221 224 227 229 231 233 233 234
311 312 310 309 308 308 306 305 304 303 299 296 292 287 283 276 265 247 235 229 229 229 222 220 217 212 210 212 218 219 218 217 214 215 215 221 222 222 224 219 223 218 214 212 218 224 224 226 229 230 231 234 234 235
313 312 312 310 308 308 309 309 306 304 300 295 290 284 277 270 256 241 230 224 221 214 212 210 208 206 205 206 211 214 214 212 210 211 211 215 217 218 218 214 216 209 201 195 204 204 220 227 231 232 232 233 235 236
316 312 312 312 312 313 312 311 308 306 300 295 288 278 268 262 248 234 223 218 210 204 204 203 202 202 202 202 204 207 208 208 206 207 209 210 213 215 213 210 208 204 205 204 203 212 212 220 230 235 236 234 235 236
316 316 316 316 316 316 315 314 313 311 306 300 293 280 261 249 236 220 211 205 200 201 201 198 197 198 198 199 200 200 201 201 204 204 206 208 210 212 208 204 209 200 199 199 199 211 218 227 218 229 239 239 237 237
322 322 321 320 320 320 320 321 320 319 317 316 308 282 249 229 213 203 199 195 194 194 193 191 193 194 194 195 196 196 196 197 198 202 205 208 207 209 203 199 204 196 198 198 204 211 209 222 220 226 233 232 237 241
327 326 325 326 326 327 326 326 328 331 337 346 3 106 186 190 191 188 186 183 182 182 183 185 187 189 190 191 191 193 194 192 196 200 203 203 204 203 197 199 198 199 194 198 208 216 215 223 219 226 229 230 234 233
333 333 333 334 334 335 335 338 344 357 16 37 59 113 143 156 155 161 167 168 172 173 175 178 181 183 185 187 189 191 191 193 197 201 200 201 205 205 204 197 198 196 198 203 204 212 219 224 231 223 229 228 229 236
341 342 343 345 347 351 357 10 31 47 58 77 91 106 125 140 151 157 160 162 164 168 171 173 176 179 182 185 187 189 192 193 194 199 201 202 202 202 204 200 198 202 201 204 205 212 216 221 227 229 235 226 220 220
351 351 355 0 5 10 21 40 55 68 81 92 100 111 121 132 140 147 154 159 163 165 168 172 173 176 181 184 186 187 191 191 192 196 197 202 196 198 203 204 200 209 209 211 212 216 211 213 223 227 232 232 231 228
359 2 9 15 19 23 35 47 60 74 84 97 108 114 120 126 132 139 146 153 157 161 167 170 173 178 180 182 183 185 188 189 190 192 193 197 190 191 200 207 202 201 206 214 216 219 217 222 228 232 235 240 244 249
7 10 17 25 29 33 42 53 63 75 86 100 107 112 115 122 130 134 135 140 150 159 165 168 174 178 178 181 183 181 184 188 188 191 196 195 192 194 194 196 206 209 209 214 216 220 223 226 231 234 241 242 244 252
15 19 22 30 37 45 53 60 65 72 84 99 109 116 122 126 131 135 139 144 149 156 162 166 167 169 173 176 177 180 183 186 189 192 196 197 197 201 200 198 206 211 213 219 224 224 229 232 232 237 241 244 249 251
26 30 30 32 42 54 60 65 67 70 69 84 104 119 122 125 128 133 139 146 151 154 157 161 162 165 169 174 175 178 180 184 189 194 199 200 201 205 207 205 203 212 215 219 223 223 224 227 234 241 243 247 250 252
34 39 39 42 48 54 64 75 79 80 89 100 104 105 106 115 125 132 136 141 146 154 160 163 165 166 169 176 180 182 186 188 193 199 201 204 206 206 205 207 209 212 215 213 215 219 226 232 237 236 242 246 248 250
39 45 49 51 56 59 63 76 87 91 91 96 102 107 111 115 121 128 132 135 141 149 157 165 168 167 171 176 183 186 190 195 201 204 206 205 211 213 212 213 215 217 219 219 223 228 233 239 240 244 246 247 250 253
42 47 53 58 60 62 66 76 84 90 91 92 94 103 108 112 115 120 126 133 137 143 153 163 169 168 173 179 188 195 201 205 205 206 210 213 216 220 216 217 218 218 223 227 229 233 238 240 243 246 251 254 255 256
48 52 57 61 64 66 66 76 81 81 86 92 94 96 101 109 114 119 128 133 134 139 146 152 160 162 166 178 193 203 210 215 217 220 224 224 224 226 230 225 226 226 228 232 238 239 238 241 244 249 250 253 258 261
48 54 60 64 66 67 68 73 77 78 81 86 92 98 103 110 118 124 128 134 138 140 143 147 152 155 157 171 185 195 202 209 214 218 222 226 227 228 229 230 229 229 230 235 243 246 247 250 250 253 257 259 262 263
53 54 56 60 64 68 69 70 74 77 78 83 89 95 100 104 112 122 127 136 144 146 146 151 153 160 165 170 179 190 200 201 204 214 224 231 235 237 237 237 238 237 233 237 243 248 250 251 256 259 258 259 260 263
52 54 58 62 63 64 68 69 70 73 76 78 80 85 93 100 107 116 129 138 151 161 165 169 174 181 193 203 207 205 205 209 215 222 226 232 235 238 241 243 243 242 241 242 245 248 251 253 255 258 260 262 264 266
51 53 54 58 63 63 62 65 66 68 73 76 78 79 81 85 92 101 113 130 148 163 177 186 198 206 212 218 225 231 235 238 240 241 242 243 243 245 245 247 248 249 250 251 251 253 255 257 260 262 264 266 267 269
48 49 51 51 53 60 64 64 65 67 68 74 79 81 82 83 83 87 94 99 109 128 156 190 215 227 234 240 244 245 246 245 246 247 249 250 252 253 255 256 258 259 259 259 260 260 261 263 264 266 267 269 270 272
46 45 43 48 52 53 55 58 61 63 64 64 64 69 76 78 78 78 82 85 90 98 108 132 192 223 237 244 251 254 256 258 261 262 262 262 262 262 262 262 262 261 262 261 262 262 263 264 265 266 267 268 268 269
44 43 44 48 49 47 50 55 56 57 58 58 60 63 68 73 75 74 74 75 77 80 83 85 87 86 89 85 66 287 280 274 273 273 273 273 271 271 270 270 268 267 267 267 267 267 266 266 266 266 266 267 267 268
42 41 43 46 47 46 46 50 57 57 55 55 57 54 50 57 65 70 75 78 81 82 80 76 68 26 301 278 276 274 275 276 276 275 274 274 273 273 272 271 270 269 268 268 269 270 271 271 271 271 271 271 271 272
30 28 29 34 37 38 36 34 35 37 38 41 40 40 38 37 35 32 24 15 9 2 350 337 323 311 304 298 293 288 282 279 277 275 273 271 270 270 269 270 271 274 275 276 277 277 277 278 278 278 278 278 278 278
28 28 28 23 24 24 20 16 17 17 13 5 2 1 359 355 352 345 335 323 315 305 298 290 285 286 285 284 282 282 282 281 281 284 288 290 290 288 287 286 284 283 282 281 279 278 278 277 277 277 277 277 277 277
27 28 27 24 19 13 9 7 7 3 359 357 1 357 343 335 325 320 314 307 303 299 295 292 291 289 290 291 289 288 290 292 293 293 292 293 292 290 289 289 289 288 287 286 285 283 282 282 281 281 281 281 281 282
35 31 25 20 15 7 358 353 350 348 349 346 344 342 333 323 324 320 308 301 300 301 301 300 299 300 297 295 295 300 302 301 298 296 295 293 292 292 292 292 292 291 291 290 290 289 289 288 288 287 286 285 283 282
28 26 24 23 25 29 33 29 24 19 10 8 8 7 3 351 343 333 326 319 309 310 311 307 302 300 302 304 304 303 301 300 300 300 299 299 298 297 297 296 295 294 294 294 294 293 293 292 291 292 292 292 292 292
33 32 30 29 30 30 28 24 20 17 15 12 8 2 357 354 350 345 339 334 329 324 319 316 314 313 311 309 306 304 304 303 302 302 302 302 302 302 302 301 301 300 299 298 298 298 298 298 297 296 295 294 293 292
Height
10448 10418 10393 10371 10358 10342 10330 10318 10308 10300 10294 10289 10285 10282 10280 10279 10280 10280 10286 10292 10298 10302 10310 10327 10345 10359 10369 10385 10403 10422 10441 10464 10485 10507 10526 10539 10552 10564 10575 10583 10591 10600 10612 10627 10640 10651 10666 10679 10692 10699 10714 10728 10736 10747
10404 10376 10358 10345 10332 10317 10307 10297 10289 10282 10278 10272 10269 10267 10265 10264 10265 10267 10270 10274 10282 10285 10305 10317 10330 10342 10355 10371 10386 10402 10424 10448 10470 10493 10511 10524 10541 10552 10564 10573 10581 10599 10608 10617 10631 10642 10653 10665 10673 10686 10696 10706 10719 10733
10366 10347 10333 10321 10310 10299 10289 10280 10273 10267 10262 10258 10256 10254 10253 10252 10252 10255 10258 10265 10271 10283 10297 10305 10319 10332 10344 10357 10372 10388 10410 10433 10455 10477 10497 10512 10525 10539 10551 10565 10571 10585 10595 10613 10626 10635 10646 10655 10660 10668 10679 10691 10704 10714
10340 10326 10313 10302 10292 10283 10274 10265 10259 10253 10248 10245 10243 10243 10242 10242 10243 10246 10253 10259 10267 10278 10285 10297 10308 10321 10334 10346 10357 10375 10399 10422 10442 10463 10482 10497 10513 10526 10541 10554 10565 10576 10588 10602 10610 10626 10631 10639 10644 10652 10663 10674 10686 10697
10321 10309 10297 10286 10277 10268 10260 10252 10246 10242 10238 10235 10234 10233 10234 10236 10238 10242 10248 10255 10264 10271 10279 10289 10301 10312 10325 10338 10353 10371 10389 10412 10433 10454 10469 10485 10501 10519 10532 10545 10557 10570 10581 10593 10603 10609 10619 10629 10635 10643 10650 10661 10672 10680
10306 10294 10283 10274 10266 10257 10250 10243 10237 10233 10230 10227 10227 10227 10229 10232 10235 10240 10245 10252 10259 10265 10275 10285 10296 10307 10319 10333 10347 10364 10384 10406 10424 10441 10457 10475 10495 10511 10526 10539 10549 10562 10575 10584 10593 10605 10614 10620 10626 10634 10640 10646 10656 10664
10293 10282 10273 10264 10255 10248 10242 10236 10231 10228 10225 10223 10223 10224 10226 10230 10234 10238 10244 10250 10256 10264 10273 10283 10293 10305 10316 10330 10345 10363 10380 10397 10417 10433 10451 10469 10488 10503 10516 10530 10541 10554 10567 10579 10588 10596 10605 10611 10616 10624 10628 10633 10639 10648
10284 10274 10264 10256 10249 10242 10237 10232 10228 10226 10224 10223 10223 10225 10227 10230 10233 10238 10242 10248 10254 10263 10272 10283 10294 10304 10316 10329 10344 10359 10376 10395 10413 10427 10444 10468 10486 10498 10510 10522 10534 10547 10557 10567 10577 10586 10594 10598 10607 10615 10616 10623 10629 10635
10277 10267 10258 10251 10245 10238 10233 10229 10227 10225 10224 10224 10225 10227 10229 10231 10234 10238 10242 10249 10256 10264 10273 10283 10294 10305 10317 10330 10343 10358 10375 10391 10404 10424 10443 10463 10477 10492 10502 10515 10528 10539 10549 10558 10569 10574 10580 10588 10595 10600 10601 10608 10616 10622
10273 10264 10256 10250 10243 10237 10232 10229 10228 10227 10227 10227 10228 10230 10232 10234 10237 10241 10246 10253 10259 10267 10275 10285 10295 10306 10318 10331 10343 10359 10375 10391 10409 10424 10442 10456 10472 10484 10495 10508 10522 10534 10541 10552 10560 10563 10569 10579 10579 10587 10590 10594 10599 10609
10272 10264 10256 10251 10245 10240 10235 10233 10231 10230 10229 10230 10231 10234 10236 10239 10242 10247 10253 10258 10265 10272 10280 10289 10299 10309 10319 10331 10345 10361 10376 10391 10407 10422 10439 10447 10469 10482 10491 10500 10517 10522 10533 10539 10540 10546 10556 10562 10564 10575 10578 10582 10591 10597
10274 10266 10259 10253 10248 10244 10241 10238 10236 10235 10235 10236 10237 10239 10242 10245 10249 10253 10258 10264 10270 10278 10286 10295 10304 10312 10322 10334 10346 10360 10375 10391 10406 10419 10431 10444 10462 10472 10478 10485 10497 10508 10513 10522 10531 10538 10547 10552 10555 10562 10567 10570 10577 10586
10278 10271 10264 10258 10253 10249 10246 10244 10243 10242 10242 10243 10245 10247 10250 10253 10257 10261 10266 10272 10277 10283 10292 10300 10307 10316 10328 10339 10350 10363 10377 10390 10403 10416 10427 10442 10454 10461 10468 10478 10486 10495 10504 10510 10517 10526 10534 10541 10547 10551 10555 10560 10566 10571
10283 10276 10270 10264 10259 10255 10252 10251 10250 10250 10250 10251 10253 10254 10257 10261 10265 10270 10274 10278 10284 10290 10298 10306 10315 10325 10335 10346 10357 10368 10380 10391 10403 10417 10426 10436 10447 10455 10462 10471 10480 10487 10498 10504 10510 10517 10522 10530 10537 10539 10542 10547 10551 10557
10289 10282 10277 10273 10267 10263 10261 10259 10259 10259 10260 10261 10261 10263 10265 10270 10275 10279 10283 10288 10293 10299 10306 10314 10322 10330 10339 10350 10360 10370 10381 10392 10404 10414 10420 10430 10440 10448 10457 10465 10473 10481 10489 10495 10500 10504 10509 10513 10519 10524 10528 10532 10539 10542
10295 10289 10287 10282 10277 10273 10271 10269 10267 10267 10268 10268 10270 10272 10276 10280 10283 10287 10291 10296 10302 10309 10314 10321 10328 10335 10344 10354 10364 10375 10385 10394 10402 10407 10416 10427 10436 10445 10452 10459 10465 10472 10478 10484 10488 10493 10499 10504 10510 10515 10519 10522 10524 10526
10303 10299 10296 10291 10286 10283 10281 10279 10276 10277 10278 10278 10279 10281 10284 10287 10291 10294 10299 10304 10309 10314 10319 10326 10334 10342 10351 10359 10369 10377 10385 10391 10396 10406 10415 10424 10435 10443 10449 10453 10458 10462 10468 10474 10478 10483 10489 10494 10498 10502 10505 10508 10510 10512
10313 10309 10304 10300 10297 10293 10291 10290 10289 10287 10288 10288 10290 10291 10294 10297 10299 10303 10307 10312 10316 10321 10327 10332 10340 10350 10357 10364 10370 10377 10383 10390 10401 10409 10416 10424 10429 10434 10439 10443 10447 10454 10460 10465 10470 10474 10478 10483 10487 10490 10492 10493 10495 10495
10325 10319 10314 10310 10306 10304 10303 10301 10299 10298 10299 10299 10300 10302 10304 10306 10309 10312 10316 10320 10324 10329 10335 10341 10348 10356 10363 10369 10375 10380 10387 10393 10400 10407 10411 10415 10419 10423 10427 10434 10440 10447 10452 10456 10460 10464 10468 10471 10472 10474 10476 10477 10477 10477
10337 10331 10325 10320 10317 10315 10314 10311 10310 10309 10309 10309 10310 10311 10313 10315 10317 10320 10324 10328 10333 10338 10343 10348 10353 10358 10364 10370 10375 10379 10384 10390 10394 10398 10401 10404 10409 10414 10419 10424 10430 10435 10440 10444 10445 10448 10452 10454 10454 10455 10455 10456 10456 10456
10350 10345 10338 10334 10329 10327 10324 10322 10320 10319 10318 10318 10319 10320 10322 10324 10327 10330 10333 10337 10341 10345 10350 10354 10358 10362 10366 10370 10374 10379 10383 10387 10391 10394 10399 10403 10406 10410 10414 10418 10421 10424 10428 10429 10430 10432 10435 10436 10437 10437 10436 10437 10438 10438
10366 10360 10354 10348 10343 10339 10336 10334 10332 10330 10329 10328 10328 10329 10330 10332 10335 10338 10341 10344 10347 10351 10355 10359 10363 10366 10370 10373 10377 10380 10383 10386 10388 10391 10393 10395 10398 10401 10403 10404 10406 10408 10410 10413 10415 10415 10416 10417 10418 10418 10419 10419 10418 10417
10381 10376 10371 10365 10359 10355 10351 10347 10344 10343 10341 10340 10339 10339 10340 10341 10343 10345 10348 10350 10353 10356 10359 10363 10367 10369 10371 10374 10377 10379 10381 10382 10384 10386 10387 10388 10390 10391 10392 10393 10394 10395 10396 10397 10398 10398 10398 10398 10398 10398 10397 10396 10394 10393
10393 10387 10383 10382 10377 10371 10367 10364 10360 10358 10356 10352 10350 10350 10349 10349 10350 10352 10353 10356 10358 10360 10362 10364 10366 10368 10370 10371 10373 10374 10374 10375 10376 10377 10377 10377 10378 10379 10380 10379 10378 10378 10379 10378 10378 10377 10377 10377 10377 10376 10374 10371 10369 10367
10399 10399 10396 10393 10389 10386 10381 10378 10374 10371 10369 10367 10365 10363 10360 10359 10359 10361 10361 10362 10363 10364 10365 10366 10366 10367 10367 10368 10367 10368 10368 10368 10367 10367 10367 10367 10366 10366 10365 10364 10363 10362 10361 10359 10358 10357 10356 10355 10354 10352 10351 10349 10347 10345
10409 10406 10403 10400 10396 10393 10390 10387 10384 10383 10381 10378 10376 10376 10374 10372 10370 10370 10370 10371 10371 10371 10370 10369 10369 10368 10368 10367 10366 10365 10364 10363 10362 10361 10360 10358 10356 10354 10352 10350 10348 10346 10345 10343 10341 10339 10338 10336 10335 10333 10331 10329 10327 10325
10416 10413 10409 10406 10402 10400 10397 10395 10392 10390 10388 10386 10385 10384 10383 10381 10379 10378 10378 10377 10376 10375 10373 10372 10371 10369 10368 10366 10364 10362 10360 10359 10357 10356 10354 10351 10349 10346 10343 10340 10337 10335 10333 10331 10328 10326 10324 10322 10320 10318 10315 10313 10310 10308
10421 10418 10415 10412 10409 10406 10404 10401 10398 10396 10394 10393 10390 10388 10386 10385 10384 10383 10382 10381 10379 10377 10375 10373 10371 10369 10367 10365 10362 10359 10356 10353 10349 10345 10343 10340 10337 10334 10331 10329 10326 10324 10322 10319 10316 10313 10310 10306 10302 10299 10296 10292 10289 10286
10426 10422 10419 10417 10413 10410 10407 10404 10402 10400 10397 10395 10394 10392 10390 10388 10387 10385 10383 10381 10379 10376 10374 10371 10367 10364 10360 10355 10351 10348 10344 10341 10338 10335 10332 10329 10326 10322 10319 10315 10311 10307 10303 10300 10296 10292 10288 10285 10281 10277 10273 10269 10265 10261
10430 10426 10423 10420 10415 10412 10408 10405 10403 10401 10398 10395 10394 10391 10389 10387 10384 10382 10379 10376 10373 10369 10365 10361 10357 10353 10350 10346 10342 10338 10333 10329 10326 10321 10317 10312 10308 10303 10299 10294 10290 10286 10282 10278 10273 10269 10266 10262 10258 10253 10249 10245 10240 10235
10434 10431 10427 10423 10419 10415 10411 10407 10404 10401 10397 10394 10391 10389 10387 10384 10381 10378 10374 10370 10366 10361 10357 10353 10348 10343 10338 10333 10328 10323 10319 10315 10311 10306 10301 10297 10292 10287 10282 10277 10272 10267 10262 10257 10251 10246 10241 10237 10232 10227 10223 10219 10215 10211
10437 10434 10430 10425 10421 10417 10411 10407 10404 10400 10397 10393 10391 10386 10383 10380 10376 10372 10369 10365 10361 10356 10350 10345 10339 10334 10329 10325 10320 10314 10307 10300 10294 10288 10282 10277 10272 10268 10263 10258 10252 10247 10241 10236 10231 10225 10220 10214 10208 10203 10198 10193 10189 10185
10443 10438 10433 10428 10423 10419 10415 10411 10406 10402 10397 10393 10389 10386 10381 10376 10371 10366 10361 10356 10351 10345 10339 10334 10329 10322 10317 10312 10305 10299 10293 10287 10280 10274 10268 10262 10256 10250 10244 10238 10232 10226 10220 10215 10209 10203 10199 10194 10189 10184 10179 10174 10169 10164